Location: Unspecified
(0.0000°N, 0.0000°E)
Time: 02:49:33
(UTC+01:00)

Cosmos 1908 Rocket - Visible Passes

Search period start: 26 October 2014 00:00
Search period end: 04 November 2014 23:00
Orbit: 608 x 633 km, 82.5° (Epoch: 25 October)

Date Brightness Start Highest point End Pass type
(mag) Time Alt. Az. Time Alt. Az. Time Alt. Az.
28 Oct 5.1 19:16:08 10° NNW 19:20:15 41° W 19:24:21 10° SSW visible
29 Oct 7.3 05:50:20 10° ESE 05:51:33 11° E 05:52:45 10° ENE visible
29 Oct 6.7 19:35:08 10° NW 19:38:06 18° W 19:41:04 10° SW visible
30 Oct 6.2 06:05:45 10° SSE 06:09:24 25° E 06:13:04 10° NE visible
02 Nov 6.9 05:23:21 10° ESE 05:25:22 13° E 05:27:23 10° ENE visible
02 Nov 6.8 19:09:20 10° WNW 19:11:55 16° W 19:14:30 10° SW visible
03 Nov 5.8 05:39:22 10° SSE 05:43:14 29° E 05:47:05 10° NNE visible
04 Nov 3.9 05:56:39 10° S 06:01:05 70° E 06:05:30 10° N visible
